Charles City, IA

9:56 PM CST on February 25, 2018 (GMT -0600)
Charles City Municipal

Weather History for KCCY - April, 2014

Change the Weather History Date:

Friday, April 4, 2014

  Actual Average Record
Temperature  
Mean Temperature 34 °F -  
Max Temperature 39 °F 51 °F 78 °F (2005)
Min Temperature 28 °F 30 °F 12 °F (1975)
Degree Days  
Heating Degree Days 32    
Moisture  
Dew Point 29 °F    
Average Humidity 85    
Maximum Humidity 100    
Minimum Humidity 65    
Precipitation  
Precipitation 0.03 in - - ()
Sea Level Pressure  
Sea Level Pressure 29.79 in    
Wind  
Wind Speed 17 mph (NW)    
Max Wind Speed 33 mph    
Max Gust Speed 43 mph    
Visibility 7 miles    
Events Rain , Snow    
Averages and records for this station are not official NWS values.
T = Trace of Precipitation, MM = Missing Value Source: NWS Daily Summary

Daily Weather History Graph

Daily Weather History Graph

Search for Another Location

Airport or City:

Trip Planner

Search our weather history database for the weather conditions in past years. The results will help you decide how hot, cold, wet, or windy it might be!

Date:

Astronomy

Apr. 04, 2014 Rise Set
Actual Time 6:47 AM CDT 7:40 PM CDT
Civil Twilight 6:18 AM CDT 8:09 PM CDT
Nautical Twilight 5:44 AM CDT 8:43 PM CDT
Astronomical Twilight 5:08 AM CDT 9:19 PM CDT
Moon 9:58 AM CDT (4/4) 12:04 AM CDT (4/4)
Length of Visible Light 13h 50m
Length of Day
12h 53m
Waxing Crescent, 25% of the Moon is Illuminated
Apr 4
Waxing Crescent
Apr 7
First Quarter
Apr 15
Full
Apr 22
Last Quarter
Apr 29
New

Hourly Weather History & Observations

Time (CDT) Temp. Windchill Dew Point Humidity Pressure Visibility Wind Dir Wind Speed Gust Speed Precip Events Conditions
12:15 AM 35.6 °F 27.1 °F 33.8 °F 93% 29.60 in 3.0 mi NE 12.7 mph - N/A   Overcast
12:35 AM 33.8 °F 24.3 °F 33.8 °F 100% 29.58 in 3.0 mi NE 13.8 mph - N/A   Overcast
12:55 AM 33.8 °F 24.3 °F 33.8 °F 100% 29.57 in 3.0 mi NE 13.8 mph 19.6 mph N/A   Overcast
1:15 AM 33.8 °F 25.3 °F 33.8 °F 100% 29.57 in 5.0 mi NE 11.5 mph - N/A   Overcast
1:35 AM 33.8 °F 27.0 °F 33.8 °F 100% 29.59 in 5.0 mi ENE 8.1 mph - N/A   Overcast
1:55 AM 33.8 °F 26.4 °F 32.0 °F 93% 29.59 in 2.5 mi NE 9.2 mph - N/A   Overcast
2:15 AM 33.8 °F 27.7 °F 32.0 °F 93% 29.60 in 3.0 mi North 6.9 mph - N/A Rain Light Rain
2:35 AM 33.8 °F 27.0 °F 32.0 °F 93% 29.59 in 2.0 mi NNE 8.1 mph - N/A Rain Light Rain
2:55 AM 33.8 °F 27.7 °F 32.0 °F 93% 29.58 in 1.5 mi North 6.9 mph - 0.01 in   Overcast
3:15 AM 33.8 °F 27.0 °F 32.0 °F 93% 29.59 in 1.8 mi NNW 8.1 mph - N/A   Overcast
3:35 AM 32.0 °F 24.2 °F 32.0 °F 100% 29.59 in 1.2 mi NNW 9.2 mph - N/A Snow Light Snow
3:55 AM 32.0 °F 23.0 °F 32.0 °F 100% 29.57 in 1.0 mi NNW 11.5 mph - 0.01 in Snow Light Snow
4:15 AM 32.0 °F 22.5 °F 32.0 °F 100% 29.57 in 1.8 mi NNW 12.7 mph - N/A Snow Light Snow
4:35 AM 32.0 °F 21.6 °F 32.0 °F 100% 29.57 in 1.0 mi NNW 15.0 mph - N/A Snow Light Snow
4:55 AM 32.0 °F 21.2 °F 32.0 °F 100% 29.58 in 1.0 mi NNW 16.1 mph - N/A Snow Light Snow
5:15 AM 32.0 °F 20.5 °F 30.2 °F 93% 29.58 in 0.5 mi NW 18.4 mph - N/A Snow Light Snow
5:35 AM 32.0 °F 20.5 °F 30.2 °F 93% 29.59 in 1.0 mi NNW 18.4 mph - N/A   Overcast
5:55 AM 30.2 °F 17.1 °F 28.4 °F 93% 29.60 in 0.5 mi NNW 21.9 mph 32.2 mph 0.01 in Snow Light Snow
6:15 AM 30.2 °F 16.5 °F 28.4 °F 93% 29.61 in 0.8 mi NNW 24.2 mph 33.4 mph N/A   Overcast
6:35 AM 30.2 °F 17.8 °F 28.4 °F 93% 29.63 in 0.8 mi NW 19.6 mph 25.3 mph N/A Snow Light Snow
6:55 AM 30.2 °F 17.4 °F 26.6 °F 86% 29.64 in 2.5 mi NW 20.7 mph 31.1 mph N/A   Overcast
7:15 AM 30.2 °F 16.8 °F 26.6 °F 86% 29.65 in 2.5 mi NW 23.0 mph - N/A Snow Light Snow
7:35 AM 28.4 °F 15.1 °F 26.6 °F 93% 29.67 in 4.0 mi NW 20.7 mph 27.6 mph N/A Rain Light Freezing Rain
7:55 AM 28.4 °F 14.7 °F 26.6 °F 93% 29.68 in 9.0 mi NW 21.9 mph 27.6 mph N/A   Overcast
8:15 AM 28.4 °F 15.8 °F 26.6 °F 93% 29.68 in 3.0 mi NW 18.4 mph 28.8 mph N/A Snow Light Snow
8:35 AM 28.4 °F 14.7 °F 24.8 °F 86% 29.69 in 3.0 mi NW 21.9 mph 33.4 mph N/A Snow Light Snow
8:55 AM 28.4 °F 14.7 °F 24.8 °F 86% 29.70 in 3.0 mi NW 21.9 mph 29.9 mph N/A Snow Light Snow
9:15 AM 28.4 °F 14.1 °F 24.8 °F 86% 29.70 in 2.0 mi NW 24.2 mph 31.1 mph N/A Rain Light Freezing Rain
9:35 AM 28.4 °F 14.4 °F 24.8 °F 86% 29.71 in 4.0 mi NW 23.0 mph 32.2 mph N/A Rain Light Freezing Rain
9:55 AM 28.4 °F 14.1 °F 24.8 °F 86% 29.72 in 5.0 mi NW 24.2 mph 32.2 mph N/A   Overcast
10:15 AM 28.4 °F 12.7 °F 24.8 °F 86% 29.74 in 6.0 mi NW 29.9 mph - N/A   Haze
10:35 AM 30.2 °F 15.9 °F 24.8 °F 80% 29.75 in 6.0 mi NW 26.5 mph 36.8 mph N/A   Haze
10:55 AM 30.2 °F 14.9 °F 24.8 °F 80% 29.75 in 10.0 mi NW 31.1 mph 40.3 mph N/A   Overcast
11:15 AM 30.2 °F 15.7 °F 26.6 °F 86% 29.76 in 10.0 mi NW 27.6 mph 38.0 mph N/A   Overcast
11:35 AM 32.0 °F 17.6 °F 26.6 °F 80% 29.77 in 10.0 mi NNW 29.9 mph 35.7 mph N/A   Overcast
11:55 AM 32.0 °F 17.0 °F 26.6 °F 80% 29.78 in 10.0 mi NW 33.4 mph 42.6 mph N/A   Overcast
12:15 PM 32.0 °F 17.9 °F 28.4 °F 87% 29.78 in 10.0 mi NW 28.8 mph 35.7 mph N/A   Overcast
12:35 PM 32.0 °F 18.4 °F 26.6 °F 80% 29.80 in 10.0 mi NW 26.5 mph 35.7 mph N/A   Overcast
1:15 PM 33.8 °F 19.9 °F 26.6 °F 75% 29.82 in 10.0 mi NW 31.1 mph 38.0 mph N/A   Overcast
1:35 PM 33.8 °F 20.5 °F 28.4 °F 81% 29.83 in 10.0 mi NW 27.6 mph 34.5 mph N/A   Overcast
1:55 PM 33.8 °F 21.3 °F 28.4 °F 81% 29.84 in 10.0 mi NW 24.2 mph 41.4 mph N/A   Overcast
2:15 PM 33.8 °F 21.0 °F 28.4 °F 81% 29.85 in 10.0 mi NW 25.3 mph 39.1 mph N/A   Overcast
2:35 PM 35.6 °F 22.7 °F 28.4 °F 75% 29.86 in 10.0 mi NW 28.8 mph 41.4 mph N/A   Overcast
3:15 PM 37.4 °F 25.6 °F 30.2 °F 75% 29.88 in 10.0 mi NW 26.5 mph 38.0 mph N/A   Overcast
3:55 PM 37.4 °F 25.9 °F 30.2 °F 75% 29.89 in 10.0 mi NW 25.3 mph 34.5 mph N/A   Mostly Cloudy
4:15 PM 37.4 °F 26.1 °F 30.2 °F 75% 29.90 in 10.0 mi NW 24.2 mph 32.2 mph N/A   Mostly Cloudy
4:35 PM 39.2 °F 28.7 °F 30.2 °F 70% 29.91 in 10.0 mi NW 23.0 mph 32.2 mph N/A   Mostly Cloudy
4:55 PM 37.4 °F 26.6 °F 28.4 °F 70% 29.92 in - NW 21.9 mph 33.4 mph N/A   Overcast
5:15 PM 37.4 °F 26.4 °F 28.4 °F 70% 29.92 in 10.0 mi NNW 23.0 mph 32.2 mph N/A   Mostly Cloudy
5:35 PM 39.2 °F 29.3 °F 28.4 °F 65% 29.93 in 10.0 mi NW 20.7 mph 34.5 mph N/A   Overcast
5:55 PM 37.4 °F 27.5 °F 28.4 °F 70% 29.94 in 10.0 mi NW 18.4 mph 32.2 mph N/A   Overcast
6:15 PM 37.4 °F 26.9 °F 28.4 °F 70% 29.95 in 10.0 mi NW 20.7 mph 31.1 mph N/A   Mostly Cloudy
6:35 PM 37.4 °F 27.2 °F 28.4 °F 70% 29.96 in 10.0 mi NW 19.6 mph 28.8 mph N/A   Scattered Clouds
6:55 PM 37.4 °F 27.2 °F 28.4 °F 70% 29.97 in 10.0 mi NW 19.6 mph 26.5 mph N/A   Partly Cloudy
7:15 PM 37.4 °F 27.8 °F 26.6 °F 65% 29.98 in 10.0 mi NW 17.3 mph - N/A   Clear
7:35 PM 35.6 °F 26.6 °F 26.6 °F 70% 29.99 in 10.0 mi NW 13.8 mph 20.7 mph N/A   Clear
7:55 PM 35.6 °F 27.1 °F 26.6 °F 70% 30.00 in 10.0 mi NW 12.7 mph - N/A   Clear
8:15 PM 33.8 °F 25.8 °F 26.6 °F 75% 30.01 in 10.0 mi NW 10.4 mph - N/A   Clear
8:35 PM 33.8 °F 25.8 °F 28.4 °F 81% 30.02 in 10.0 mi WNW 10.4 mph - N/A   Clear
8:55 PM 33.8 °F 25.3 °F 30.2 °F 87% 30.04 in 10.0 mi WNW 11.5 mph - N/A   Clear
9:15 PM 33.8 °F 24.8 °F 30.2 °F 87% 30.05 in 10.0 mi WNW 12.7 mph - N/A   Clear
9:35 PM 33.8 °F 25.3 °F 30.2 °F 87% 30.06 in 10.0 mi WNW 11.5 mph - N/A   Clear
9:55 PM 33.8 °F 25.3 °F 30.2 °F 87% 30.06 in 10.0 mi WNW 11.5 mph - N/A   Clear
10:15 PM 33.8 °F 25.8 °F 30.2 °F 87% 30.07 in 10.0 mi WNW 10.4 mph 16.1 mph N/A   Clear
10:35 PM 32.0 °F 22.5 °F 30.2 °F 93% 30.07 in 10.0 mi WNW 12.7 mph - N/A   Clear
10:55 PM 32.0 °F 23.0 °F 28.4 °F 87% 30.07 in 10.0 mi WNW 11.5 mph - N/A   Clear
11:15 PM 32.0 °F 23.0 °F 28.4 °F 87% 30.08 in 10.0 mi WNW 11.5 mph - N/A   Clear
11:35 PM 32.0 °F 24.2 °F 28.4 °F 87% 30.08 in 10.0 mi WNW 9.2 mph - N/A   Clear
11:55 PM 32.0 °F 24.2 °F 28.4 °F 87% 30.08 in 10.0 mi WNW 9.2 mph - N/A   Clear